This demonstration page uses our WeatherBlox Daily Observations layout. Learn more.

Left ArrowRight Arrow

Hourly Observations for May 3, 2017

Temp ( °F °C ) Dew Point ( °F °C ) Humidity (%) Winds ( mph kmh ) Pressure ( in mb ) Visibility ( mi km ) Precip ( " mm )
12:15 am 00:15 Mostly Cloudy 59 15 45 7 59 59 W 7 11 29.85 1011 10 16 N/A
12:35 am 00:35 Cloudy 59 15 46 8 63 63 W 6 9 29.85 1011 10 16 N/A
12:55 am 00:55 Cloudy 61 16 45 7 55 55 NW 7 11 29.85 1011 10 16 N/A
1:15 am 01:15 Cloudy 61 16 45 7 55 55 NNW 6 9 29.88 1012 10 16 N/A
1:35 am 01:35 Mostly Cloudy 61 16 45 7 55 55 NW 5 7 29.88 1012 10 16 N/A
1:55 am 01:55 Mostly Cloudy 61 16 45 7 55 55 N N/A 29.88 1012 10 16 N/A
2:15 am 02:15 Cloudy 59 15 46 8 63 63 WNW 5 7 29.88 1012 10 16 N/A
2:35 am 02:35 Cloudy 59 15 46 8 63 63 WNW 7 11 29.88 1012 10 16 N/A
2:55 am 02:55 Cloudy 61 16 45 7 55 55 NW 10 17 29.88 1012 10 16 N/A
3:15 am 03:15 Mostly Cloudy 63 17 43 6 49 49 NW 9 15 29.88 1012 10 16 N/A
3:35 am 03:35 Mostly Cloudy 63 17 43 6 49 49 NW 13 20 29.88 1012 10 16 N/A
3:55 am 03:55 Mostly Cloudy 61 16 43 6 52 52 NW 14 22 29.88 1012 10 16 N/A
4:15 am 04:15 Partly Cloudy 61 16 45 7 55 55 NW 16 26 29.91 1013 10 16 N/A
4:35 am 04:35 Clear 59 15 45 7 59 59 NNW 15 24 29.91 1013 10 16 N/A
4:55 am 04:55 Partly Cloudy 59 15 45 7 59 59 NNW 12 19 29.91 1013 10 16 N/A
5:15 am 05:15 Partly Cloudy 59 15 45 7 59 59 NNW 16 26 29.91 1013 10 16 N/A
5:35 am 05:35 Clear 57 14 45 7 63 63 NW 13 20 29.94 1014 10 16 N/A
5:55 am 05:55 Clear 57 14 45 7 63 63 NW 13 20 29.94 1014 10 16 N/A
6:15 am 06:15 Mostly Cloudy 57 14 45 7 63 63 NW 12 19 29.94 1014 10 16 N/A
6:35 am 06:35 Cloudy 57 14 45 7 63 63 NW 14 22 29.97 1015 10 16 N/A
6:55 am 06:55 Mostly Cloudy 55 13 45 7 67 67 NW 12 19 29.97 1015 10 16 N/A
7:15 am 07:15 Partly Cloudy 57 14 45 7 63 63 NW 14 22 29.97 1015 10 16 N/A
7:35 am 07:35 Sunny 57 14 45 7 63 63 NNW 20 31 29.97 1015 10 16 N/A
7:55 am 07:55 Partly Cloudy 55 13 41 5 59 59 NW 16 26 30.00 1016 10 16 N/A
8:15 am 08:15 Partly Cloudy 55 13 41 5 59 59 NW 16 26 30.00 1016 10 16 N/A
8:35 am 08:35 Mostly Cloudy 55 13 39 4 55 55 NW 18 30 30.00 1016 10 16 N/A
8:55 am 08:55 Partly Cloudy 57 14 37 3 48 48 NW 24 39 30.03 1017 10 16 N/A
9:15 am 09:15 Partly Cloudy 59 15 37 3 45 45 NNW 17 28 30.03 1017 10 16 N/A
9:35 am 09:35 Mostly Cloudy 61 16 37 3 42 42 NW 23 37 30.03 1017 10 16 N/A
9:55 am 09:55 Mostly Cloudy 61 16 37 3 42 42 NW 24 39 30.03 1017 10 16 N/A
10:15 am 10:15 Partly Cloudy 61 16 37 3 42 42 WNW 24 39 30.03 1017 10 16 N/A
10:35 am 10:35 Partly Cloudy 59 15 37 3 45 45 NNW 16 26 30.06 1018 10 16 N/A
10:55 am 10:55 Partly Cloudy 59 15 37 3 45 45 NW 20 31 30.06 1018 10 16 N/A
11:15 am 11:15 Mostly Cloudy 59 15 37 3 45 45 NNW 22 35 30.06 1018 10 16 N/A
11:35 am 11:35 Cloudy 59 15 37 3 45 45 NW 15 24 30.09 1019 10 16 N/A
11:55 am 11:55 Partly Cloudy 61 16 39 4 45 45 NW 28 44 30.09 1019 10 16 N/A
12:15 pm 12:15 Partly Cloudy 61 16 41 5 48 48 WNW 24 39 30.09 1019 10 16 N/A
12:35 pm 12:35 Mostly Cloudy 61 16 39 4 45 45 NNW 21 33 30.09 1019 10 16 N/A
12:55 pm 12:55 Mostly Cloudy 63 17 43 6 49 49 NNW 20 31 30.09 1019 10 16 N/A
1:15 pm 13:15 Partly Cloudy 61 16 39 4 45 45 NNW 16 26 30.09 1019 10 16 N/A
1:35 pm 13:35 Partly Cloudy 61 16 41 5 48 48 NNW 16 26 30.09 1019 10 16 N/A
1:55 pm 13:55 Partly Cloudy 61 16 43 6 52 52 NNW 13 20 30.09 1019 10 16 N/A
2:15 pm 14:15 Cloudy 61 16 41 5 48 48 NW 15 24 30.12 1020 10 16 N/A
2:35 pm 14:35 Cloudy 61 16 41 5 48 48 NNW 14 22 30.12 1020 10 16 N/A
2:55 pm 14:55 Cloudy 61 16 41 5 48 48 NW 23 37 30.12 1020 10 16 N/A
3:15 pm 15:15 Mostly Cloudy 63 17 43 6 49 49 WNW 17 28 30.12 1020 10 16 N/A
3:35 pm 15:35 Partly Cloudy 61 16 41 5 48 48 NNW 18 30 30.12 1020 10 16 N/A
3:55 pm 15:55 Sunny 63 17 41 5 45 45 NNW 18 30 30.09 1019 10 16 N/A
4:15 pm 16:15 Partly Cloudy 64 18 41 5 43 43 NNW 18 30 30.09 1019 10 16 N/A
4:35 pm 16:35 Partly Cloudy 63 17 41 5 45 45 NNW 16 26 30.09 1019 10 16 N/A
4:55 pm 16:55 Sunny 63 17 41 5 45 45 NW 16 26 30.09 1019 10 16 N/A
5:15 pm 17:15 Sunny 63 17 39 4 42 42 NNW 14 22 30.09 1019 10 16 N/A
5:35 pm 17:35 Sunny 63 17 41 5 45 45 NNW 12 19 30.09 1019 10 16 N/A
5:55 pm 17:55 Partly Cloudy 63 17 41 5 45 45 N 13 20 30.09 1019 10 16 N/A
6:15 pm 18:15 Partly Cloudy 63 17 41 5 45 45 NW 9 15 30.09 1019 10 16 N/A
6:35 pm 18:35 Partly Cloudy 63 17 41 5 45 45 NNW 7 11 30.09 1019 10 16 N/A
6:55 pm 18:55 Sunny 63 17 39 4 42 42 NNW 6 9 30.12 1020 10 16 N/A
7:15 pm 19:15 Sunny 63 17 39 4 42 42 N 7 11 30.12 1020 10 16 N/A
7:35 pm 19:35 Sunny 61 16 41 5 48 48 N 7 11 30.15 1021 10 16 N/A
7:55 pm 19:55 Sunny 61 16 41 5 48 48 NNW 5 7 30.15 1021 10 16 N/A
8:15 pm 20:15 Clear 59 15 41 5 51 51 N N/A 30.18 1022 10 16 N/A
8:35 pm 20:35 Clear 57 14 43 6 59 59 NNW 3 6 30.18 1022 10 16 N/A
8:55 pm 20:55 Clear 57 14 41 5 55 55 N N/A 30.18 1022 10 16 N/A
9:15 pm 21:15 Clear 55 13 43 6 63 63 NNW 5 7 30.21 1023 10 16 N/A
9:35 pm 21:35 Clear 54 12 43 6 67 67 N N/A 30.21 1023 10 16 N/A
9:55 pm 21:55 Clear 52 11 45 7 77 77 NNW 3 6 30.24 1024 10 16 N/A
10:15 pm 22:15 Clear 54 12 45 7 72 72 N N/A 30.21 1023 10 16 N/A
10:35 pm 22:35 Clear 50 10 45 7 82 82 NNW 5 7 30.24 1024 10 16 N/A
10:55 pm 22:55 Clear 50 10 45 7 82 82 N N/A 30.24 1024 10 16 N/A
11:15 pm 23:15 Clear 50 10 45 7 82 82 N N/A 30.24 1024 10 16 N/A
11:35 pm 23:35 Clear 46 8 45 7 93 93 N N/A 30.24 1024 10 16 N/A
11:55 pm 23:55 Clear 46 8 45 7 93 93 N N/A 30.24 1024 10 16 N/A

Powered by AerisWeather